Tracking 23752 objects as of 23-Oct-2021
HD Live streaming from Space Station
objects crossing your sky now

AISTECHSAT-2

Track AISTECHSAT-2 now!
10-day predictions


NORAD ID: 43768
Int'l Code: 2018-099L
Perigee: 581.8 km
Apogee: 597.1 km
Inclination: 97.6 °
Period: 96.3 minutes
Semi major axis: 6960 km
RCS: Unknown
Launch date: December 3, 2018
Source: Spain (SPN)
Launch site: AIR FORCE WESTERN TEST RANGE (AFWTR)
aabbcc
Your satellite tracking list
Your tracking list is empty




NASA's NSSDC Master Catalog

Two Line Element Set (TLE):
1 43768U 18099L   21295.74435428  .00000783  00000-0  76613-4 0  9996
2 43768  97.6499   2.2552 0011002 352.0842   8.0203 14.95029386157168
Source of the keplerian elements: AFSPC